Location: Unspecified
(51.6250°N, 0.8230°E)
Time: 23:48:48
(UTC+01:00)

CZ-3 Stage 3 - Visible Passes

Search period start: 04 August 2020 00:00
Search period end: 14 August 2020 00:00
Orbit: 422 x 34768 km, 31.2° (Epoch: 03 August)

Date Brightness Start Highest point End Pass type
(mag) Time Alt. Az. Time Alt. Az. Time Alt. Az.
04 Aug 9.7 02:01:39 10° E 07:14:03 36° E 09:16:16 10° E visible
06 Aug 7.8 03:50:20 10° SSE 10:15:31 65° SSE 12:59:21 10° SE visible
07 Aug 9.6 01:48:18 10° E 07:01:52 36° E 09:05:08 10° E visible
09 Aug 7.8 03:39:10 10° SSE 10:01:29 65° SSE 12:48:37 10° SE visible
10 Aug 9.5 01:35:00 10° E 06:49:41 35° E 08:53:56 10° E visible
12 Aug 7.7 03:28:01 10° SSE 09:47:37 65° SSE 12:37:52 10° SE visible
13 Aug 9.4 01:21:45 10° E 06:37:32 35° E 08:42:42 10° E visible
